BAW468 EGLL-LEPA

Flight info

Callsign BAW468
Flight time 1h 58m
Altitude 27000
Route MAXIT1G MAXIT Y803 MID L151 SITET UN859 LGL/N0427F350 UN859 SOPIL DCT BALAN DCT EVPOK DCT NARAK DCT GAI DCT LOMRA DCT ROCAN DCT IBRAP N13 LORES LORES1P
Aircraft A20N/M-SDE2E3FGHIRWXY/LB1

Departure

Time 2026-05-04 09:31
Airport London Heathrow Airport (EGLL)

Arrival

Time 2026-05-04 11:29
Airport Palma de Mallorca Airport (LEPA)
Time Latitude Longitude Altitude Speed Heading
2026-05-04 08:31 51.47187 -0.48602 90 ft 0 kts 269°
2026-05-04 09:17 51.47188 -0.48526 86 ft 4 kts 263°
2026-05-04 09:18 51.47195 -0.48487 90 ft 4 kts 223°
2026-05-04 09:18 51.47215 -0.48475 88 ft 2 kts 179°
2026-05-04 09:18 51.47216 -0.48475 88 ft 0 kts 179°
2026-05-04 09:21 51.47211 -0.48475 88 ft 2 kts 179°
2026-05-04 09:21 51.47182 -0.48474 88 ft 6 kts 179°
2026-05-04 09:22 51.47127 -0.48473 88 ft 10 kts 180°
2026-05-04 09:22 51.47044 -0.48474 86 ft 14 kts 181°
2026-05-04 09:22 51.46936 -0.48474 86 ft 17 kts 179°
2026-05-04 09:22 51.46815 -0.48473 88 ft 17 kts 180°
2026-05-04 09:23 51.46700 -0.48468 87 ft 16 kts 177°
2026-05-04 09:23 51.46653 -0.48377 88 ft 10 kts 91°
2026-05-04 09:23 51.46652 -0.48265 87 ft 10 kts 90°
2026-05-04 09:23 51.46652 -0.48138 87 ft 13 kts 89°
2026-05-04 09:25 51.46661 -0.46572 88 ft 25 kts 88°
2026-05-04 09:25 51.46659 -0.46296 90 ft 22 kts 91°
2026-05-04 09:26 51.46658 -0.46075 90 ft 21 kts 89°
2026-05-04 09:26 51.46660 -0.45835 86 ft 22 kts 90°
2026-05-04 09:26 51.46662 -0.45578 86 ft 24 kts 94°
2026-05-04 09:26 51.46663 -0.45314 86 ft 25 kts 91°
2026-05-04 09:27 51.46664 -0.45035 87 ft 26 kts 89°
2026-05-04 09:27 51.46662 -0.44757 87 ft 19 kts 90°
2026-05-04 09:27 51.46662 -0.44532 87 ft 21 kts 89°
2026-05-04 09:27 51.46666 -0.44287 86 ft 22 kts 89°
2026-05-04 09:28 51.46668 -0.44122 86 ft 13 kts 88°
2026-05-04 09:28 51.46627 -0.44057 86 ft 7 kts 177°
2026-05-04 09:28 51.46609 -0.44056 86 ft 3 kts 178°
2026-05-04 09:28 51.46606 -0.44056 86 ft 0 kts 178°
2026-05-04 09:29 51.46588 -0.44055 86 ft 5 kts 178°
2026-05-04 09:29 51.46540 -0.44053 87 ft 9 kts 179°
2026-05-04 09:29 51.46492 -0.44113 85 ft 9 kts 273°
2026-05-04 09:30 51.46491 -0.44235 86 ft 15 kts 270°
2026-05-04 09:30 51.46493 -0.44709 88 ft 76 kts 269°
2026-05-04 09:30 51.46487 -0.45954 87 ft 149 kts 270°
2026-05-04 09:30 51.46485 -0.47855 569 ft 172 kts 272°
2026-05-04 09:31 51.46490 -0.49797 1409 ft 182 kts 270°
2026-05-04 09:31 51.46462 -0.51927 2283 ft 192 kts 268°
2026-05-04 09:31 51.46216 -0.54143 2744 ft 218 kts 250°
2026-05-04 09:31 51.45435 -0.56364 3309 ft 240 kts 237°
2026-05-04 09:32 51.44484 -0.58702 3979 ft 260 kts 237°
2026-05-04 09:32 51.43458 -0.61130 4888 ft 268 kts 230°
2026-05-04 09:34 51.31979 -0.56768 8966 ft 278 kts 160°
2026-05-04 09:34 51.30228 -0.55863 9907 ft 280 kts 171°
2026-05-04 09:34 51.28261 -0.55694 10587 ft 293 kts 186°
2026-05-04 09:34 51.26203 -0.56268 10946 ft 315 kts 190°
2026-05-04 09:35 51.23979 -0.56810 11438 ft 331 kts 189°
2026-05-04 09:35 51.21682 -0.57384 12313 ft 335 kts 190°
2026-05-04 09:35 51.19372 -0.58036 13193 ft 339 kts 191°
2026-05-04 09:35 51.17046 -0.58747 13996 ft 344 kts 191°
2026-05-04 09:37 51.00170 -0.59075 19114 ft 372 kts 158°
2026-05-04 09:37 50.97776 -0.57469 19755 ft 375 kts 159°
2026-05-04 09:38 50.95356 -0.55861 20391 ft 378 kts 159°
2026-05-04 09:38 50.92915 -0.54249 21010 ft 382 kts 159°
2026-05-04 09:38 50.90448 -0.52624 21645 ft 385 kts 159°
2026-05-04 09:38 50.87967 -0.50994 22263 ft 388 kts 159°
2026-05-04 09:39 50.85458 -0.49347 22872 ft 392 kts 159°
2026-05-04 09:39 50.82957 -0.47705 23472 ft 395 kts 159°
2026-05-04 09:39 50.80406 -0.46033 24017 ft 397 kts 159°
2026-05-04 09:39 50.77850 -0.44358 24620 ft 397 kts 159°
2026-05-04 09:40 50.75297 -0.42687 25191 ft 398 kts 160°
2026-05-04 09:40 50.72735 -0.41013 25738 ft 399 kts 160°
2026-05-04 09:40 50.70166 -0.39350 26271 ft 399 kts 162°
2026-05-04 09:40 50.67554 -0.37869 26780 ft 400 kts 163°
2026-05-04 09:41 50.64932 -0.36397 27304 ft 401 kts 163°
2026-05-04 09:42 50.46326 -0.26053 30386 ft 411 kts 163°
2026-05-04 09:43 50.43617 -0.24557 30650 ft 415 kts 163°
2026-05-04 09:43 50.40884 -0.23050 30941 ft 418 kts 163°
2026-05-04 09:43 50.38137 -0.21535 31262 ft 420 kts 163°
2026-05-04 09:43 50.35417 -0.20037 31603 ft 420 kts 163°
2026-05-04 09:44 50.32645 -0.18511 31984 ft 421 kts 163°
2026-05-04 09:44 50.29903 -0.17005 32355 ft 421 kts 163°
2026-05-04 09:44 50.27127 -0.15482 32709 ft 421 kts 163°
2026-05-04 09:46 50.07721 -0.04896 34852 ft 425 kts 163°
2026-05-04 09:46 50.04922 -0.03376 34970 ft 425 kts 163°
2026-05-04 09:46 50.02166 -0.01880 35012 ft 424 kts 163°
2026-05-04 09:47 49.96605 0.01132 35011 ft 423 kts 163°
2026-05-04 09:49 49.74405 0.13082 35009 ft 421 kts 163°
2026-05-04 09:51 49.54834 0.21768 35013 ft 419 kts 167°
2026-05-04 09:51 49.49192 0.24033 35015 ft 419 kts 167°
2026-05-04 09:52 49.43551 0.26292 34991 ft 419 kts 167°
2026-05-04 09:52 49.37908 0.28546 34991 ft 419 kts 167°
2026-05-04 09:53 49.32271 0.30793 34993 ft 419 kts 167°
2026-05-04 09:53 49.26656 0.33094 34979 ft 419 kts 166°
2026-05-04 09:54 49.21036 0.35491 34984 ft 419 kts 166°
2026-05-04 09:54 49.15448 0.37854 34987 ft 419 kts 166°
2026-05-04 09:55 49.09818 0.40217 34976 ft 419 kts 166°
2026-05-04 09:55 49.04185 0.42575 34989 ft 419 kts 166°
2026-05-04 09:56 48.98545 0.44930 34980 ft 419 kts 166°
2026-05-04 09:56 48.92918 0.47275 34984 ft 419 kts 166°
2026-05-04 09:57 48.87295 0.49612 34975 ft 419 kts 167°
2026-05-04 09:57 48.81696 0.51934 34975 ft 419 kts 167°
2026-05-04 09:58 48.76068 0.54236 34975 ft 419 kts 167°
2026-05-04 09:58 48.70422 0.56434 34974 ft 418 kts 167°
2026-05-04 10:00 48.49019 0.64798 34972 ft 418 kts 167°
2026-05-04 10:04 48.09818 0.80536 34957 ft 415 kts 167°
2026-05-04 10:04 48.04221 0.82729 34954 ft 415 kts 167°
2026-05-04 10:05 47.98661 0.84903 34953 ft 415 kts 167°
2026-05-04 10:05 47.93066 0.87085 34952 ft 415 kts 167°
2026-05-04 10:06 47.87471 0.89263 34956 ft 415 kts 168°
2026-05-04 10:06 47.81885 0.91433 34955 ft 415 kts 168°
2026-05-04 10:08 47.62261 0.99016 34966 ft 415 kts 168°
2026-05-04 10:08 47.56660 1.01168 34962 ft 415 kts 168°
2026-05-04 10:09 47.51105 1.03300 34962 ft 415 kts 168°
2026-05-04 10:09 47.45503 1.05394 34965 ft 414 kts 171°
2026-05-04 10:10 47.39804 1.06386 34966 ft 411 kts 180°
2026-05-04 10:10 47.34095 1.06255 34962 ft 410 kts 183°
2026-05-04 10:11 47.28404 1.06104 34968 ft 410 kts 182°
2026-05-04 10:11 47.22695 1.05969 34967 ft 410 kts 182°
2026-05-04 10:12 47.16990 1.05837 34967 ft 409 kts 182°
2026-05-04 10:12 47.11293 1.05704 34962 ft 409 kts 183°
2026-05-04 10:13 47.05647 1.05572 34963 ft 409 kts 183°
2026-05-04 10:13 46.99955 1.05420 34958 ft 408 kts 184°
2026-05-04 10:14 46.94288 1.05163 34959 ft 407 kts 184°
2026-05-04 10:16 46.71657 1.04182 34948 ft 406 kts 184°
2026-05-04 10:16 46.66034 1.03944 34944 ft 406 kts 184°
2026-05-04 10:17 46.60382 1.03705 34947 ft 406 kts 184°
2026-05-04 10:19 46.40755 1.06964 34946 ft 411 kts 171°
2026-05-04 10:19 46.37968 1.07902 34949 ft 411 kts 171°
2026-05-04 10:19 46.32389 1.09764 34948 ft 412 kts 171°
2026-05-04 10:20 46.26797 1.11624 34949 ft 412 kts 171°
2026-05-04 10:20 46.21208 1.13480 34955 ft 412 kts 171°
2026-05-04 10:21 46.15607 1.15336 34959 ft 413 kts 171°
2026-05-04 10:21 46.10044 1.17176 34960 ft 413 kts 171°
2026-05-04 10:22 46.01629 1.19951 34970 ft 414 kts 171°
2026-05-04 10:23 45.96015 1.21798 34970 ft 414 kts 171°
2026-05-04 10:25 45.73573 1.29144 34968 ft 414 kts 171°
2026-05-04 10:25 45.67958 1.30972 34963 ft 414 kts 171°
2026-05-04 10:26 45.62358 1.32791 34963 ft 414 kts 171°
2026-05-04 10:26 45.56743 1.34612 34954 ft 414 kts 172°
2026-05-04 10:27 45.51123 1.36431 34957 ft 414 kts 172°
2026-05-04 10:27 45.45493 1.38249 34959 ft 414 kts 172°
2026-05-04 10:28 45.39874 1.40059 34951 ft 414 kts 172°
2026-05-04 10:28 45.34256 1.41866 34948 ft 414 kts 172°
2026-05-04 10:29 45.28661 1.43662 34958 ft 414 kts 172°
2026-05-04 10:29 45.23035 1.45464 34963 ft 414 kts 172°
2026-05-04 10:30 45.17402 1.47265 34958 ft 415 kts 172°
2026-05-04 10:30 45.11764 1.49064 34961 ft 415 kts 172°
2026-05-04 10:31 45.06124 1.50859 34964 ft 416 kts 172°
2026-05-04 10:32 44.86341 1.57130 34966 ft 418 kts 172°
2026-05-04 10:33 44.80667 1.58919 34966 ft 418 kts 172°
2026-05-04 10:33 44.74990 1.60705 34964 ft 418 kts 172°
2026-05-04 10:34 44.69324 1.62486 34962 ft 417 kts 172°
2026-05-04 10:34 44.63648 1.64266 34959 ft 417 kts 172°
2026-05-04 10:35 44.57975 1.66041 34958 ft 417 kts 173°
2026-05-04 10:35 44.52306 1.67812 34956 ft 417 kts 173°
2026-05-04 10:36 44.46632 1.69580 34959 ft 418 kts 173°
2026-05-04 10:36 44.40988 1.71336 34959 ft 418 kts 173°
2026-05-04 10:37 44.35311 1.73099 34959 ft 418 kts 173°
2026-05-04 10:37 44.29628 1.74849 34969 ft 417 kts 174°
2026-05-04 10:39 44.09598 1.79292 34965 ft 415 kts 176°
2026-05-04 10:40 44.03884 1.80551 34963 ft 416 kts 176°
2026-05-04 10:40 43.98166 1.81808 34964 ft 415 kts 176°
2026-05-04 10:41 43.92497 1.82722 34963 ft 411 kts 181°
2026-05-04 10:41 43.86779 1.83260 34966 ft 411 kts 181°
2026-05-04 10:42 43.81060 1.83812 34974 ft 412 kts 181°
2026-05-04 10:42 43.75327 1.84367 34966 ft 412 kts 181°
2026-05-04 10:43 43.69635 1.84922 34971 ft 410 kts 181°
2026-05-04 10:45 43.46874 1.87114 34969 ft 408 kts 182°
2026-05-04 10:45 43.42155 1.87567 34967 ft 408 kts 182°
2026-05-04 10:46 43.35560 1.88199 34964 ft 407 kts 182°
2026-05-04 10:46 43.30868 1.88648 34964 ft 406 kts 182°
2026-05-04 10:47 43.25232 1.89188 34960 ft 405 kts 182°
2026-05-04 10:47 43.19605 1.89726 34961 ft 405 kts 182°
2026-05-04 10:49 42.97189 1.91856 34942 ft 402 kts 182°
2026-05-04 10:50 42.91604 1.92385 34942 ft 402 kts 182°
2026-05-04 10:52 42.69346 1.94498 34962 ft 400 kts 181°
2026-05-04 10:52 42.63809 1.95891 34959 ft 409 kts 172°
2026-05-04 10:54 42.41898 2.03811 34973 ft 408 kts 173°
2026-05-04 10:56 42.19982 2.11610 34952 ft 404 kts 173°
2026-05-04 10:57 42.14547 2.13530 34962 ft 406 kts 173°
2026-05-04 10:57 42.09090 2.15463 34953 ft 404 kts 173°
2026-05-04 10:58 42.03636 2.17384 34952 ft 405 kts 173°
2026-05-04 10:58 41.98181 2.19303 34956 ft 405 kts 173°
2026-05-04 10:59 41.92769 2.21204 34956 ft 404 kts 173°
2026-05-04 10:59 41.87292 2.23124 34953 ft 404 kts 173°
2026-05-04 11:00 41.81850 2.25030 34958 ft 404 kts 174°
2026-05-04 11:02 41.60194 2.32588 34955 ft 401 kts 174°
2026-05-04 11:05 41.19610 2.46607 34797 ft 403 kts 173°
2026-05-04 11:06 41.16895 2.47538 34550 ft 403 kts 173°
2026-05-04 11:06 41.14183 2.48468 34312 ft 403 kts 173°
2026-05-04 11:06 41.11457 2.49401 34066 ft 404 kts 173°
2026-05-04 11:06 41.08728 2.50333 33813 ft 405 kts 172°
2026-05-04 11:08 40.89223 2.56988 28828 ft 411 kts 172°
2026-05-04 11:10 40.70324 2.63391 24817 ft 389 kts 170°
2026-05-04 11:12 40.52393 2.69438 20878 ft 368 kts 169°
2026-05-04 11:12 40.49948 2.70463 20344 ft 369 kts 162°
2026-05-04 11:12 40.47634 2.71915 19800 ft 370 kts 155°
2026-05-04 11:12 40.45420 2.73548 19242 ft 369 kts 155°
2026-05-04 11:13 40.43177 2.75186 18698 ft 368 kts 155°
2026-05-04 11:13 40.40940 2.76811 18093 ft 368 kts 155°
2026-05-04 11:13 40.38683 2.78447 17561 ft 364 kts 155°
2026-05-04 11:13 40.36504 2.80023 17031 ft 361 kts 154°
2026-05-04 11:14 40.34313 2.81606 16491 ft 358 kts 154°
2026-05-04 11:14 40.32142 2.83174 15963 ft 355 kts 154°
2026-05-04 11:14 40.29983 2.84733 15430 ft 353 kts 154°
2026-05-04 11:16 40.16385 2.94534 13605 ft 297 kts 154°
2026-05-04 11:16 40.14582 2.95829 13222 ft 294 kts 154°
2026-05-04 11:16 40.12797 2.97111 12852 ft 291 kts 154°
2026-05-04 11:17 40.11030 2.98380 12476 ft 288 kts 154°
2026-05-04 11:17 40.09284 2.99632 12104 ft 285 kts 154°
2026-05-04 11:19 39.97505 3.08060 9608 ft 268 kts 155°
2026-05-04 11:19 39.95883 3.09219 9264 ft 265 kts 155°
2026-05-04 11:19 39.94273 3.10364 8929 ft 261 kts 156°
2026-05-04 11:19 39.92595 3.11138 8593 ft 253 kts 172°
2026-05-04 11:20 39.90854 3.11262 8271 ft 248 kts 187°
2026-05-04 11:20 39.89150 3.11017 7951 ft 245 kts 188°
2026-05-04 11:20 39.87459 3.10794 7633 ft 243 kts 188°
2026-05-04 11:20 39.85786 3.10587 7320 ft 241 kts 188°
2026-05-04 11:22 39.73406 3.09077 6241 ft 232 kts 189°
2026-05-04 11:22 39.71862 3.08723 5903 ft 221 kts 204°
2026-05-04 11:23 39.70605 3.07642 5499 ft 219 kts 226°
2026-05-04 11:23 39.69635 3.06080 5199 ft 222 kts 235°
2026-05-04 11:24 39.64947 2.96144 3482 ft 203 kts 238°
2026-05-04 11:25 39.64227 2.94612 3224 ft 195 kts 237°
2026-05-04 11:25 39.63552 2.93175 3009 ft 182 kts 238°
2026-05-04 11:25 39.62907 2.91812 2750 ft 172 kts 238°
2026-05-04 11:26 39.61698 2.89237 2306 ft 165 kts 238°
2026-05-04 11:27 39.57844 2.81048 907 ft 123 kts 237°
2026-05-04 11:28 39.57407 2.80123 739 ft 116 kts 237°
2026-05-04 11:28 39.57000 2.79257 594 ft 112 kts 236°
2026-05-04 11:28 39.56568 2.78342 458 ft 125 kts 236°
2026-05-04 11:28 39.56115 2.77385 276 ft 123 kts 238°
2026-05-04 11:29 39.55678 2.76445 122 ft 119 kts 237°
2026-05-04 11:29 39.55255 2.75565 39 ft 111 kts 241°
2026-05-04 11:29 39.54951 2.74915 38 ft 54 kts 238°
2026-05-04 11:29 39.54836 2.74610 35 ft 35 kts 256°
2026-05-04 11:31 39.55314 2.73738 38 ft 26 kts 328°
2026-05-04 11:33 39.55204 2.72948 36 ft 5 kts 232°
2026-05-04 11:33 39.55176 2.72951 38 ft 5 kts 156°
2026-05-04 11:33 39.55142 2.72966 38 ft 0 kts 162°
2026-05-04 11:34 39.55136 2.72969 36 ft 1 kts 162°
2026-05-04 11:34 39.55134 2.72970 36 ft 0 kts 162°